TimeMST,TemperatureF,Dew PointF,Humidity,Sea Level PressureIn,VisibilityMPH,Wind Direction,Wind SpeedMPH,Gust SpeedMPH,PrecipitationIn,Events,Conditions,WindDirDegrees,DateUTC
12:00 AM,-41.3,-49.9,62,29.55,-9999.0,NNW,3.5,-,N/A,,Unknown,340,2013-01-16 07:00:00
1:00 AM,-41.4,-50.1,62,29.55,-9999.0,Calm,Calm,-,N/A,,Unknown,0,2013-01-16 08:00:00
2:00 AM,-41.6,-50.4,61,29.55,-9999.0,NNW,3.5,-,N/A,,Unknown,330,2013-01-16 09:00:00
3:00 AM,-41.1,-49.9,61,29.54,-9999.0,NW,6.9,-,N/A,,Unknown,320,2013-01-16 10:00:00
4:00 AM,-39.3,-48.1,61,29.53,-9999.0,NNW,8.1,-,N/A,,Unknown,330,2013-01-16 11:00:00
5:00 AM,-41,-50,41,29.53,,NNW,5.8,,,,,340,2013-01-16 12:00:00
5:00 AM,-41.1,-49.7,62,29.53,-9999.0,NNW,5.8,-,N/A,,Unknown,340,2013-01-16 12:00:00
6:00 AM,-40.5,-49.0,62,29.53,-9999.0,NW,3.5,-,N/A,,Unknown,320,2013-01-16 13:00:00
7:00 AM,-41.8,-50.6,61,29.53,-9999.0,NNW,2.3,-,N/A,,Unknown,340,2013-01-16 14:00:00
8:00 AM,-43.2,-52.2,60,29.53,-9999.0,NNE,3.5,-,N/A,,Unknown,20,2013-01-16 15:00:00
9:00 AM,-42.2,-51.0,61,29.51,-9999.0,NNW,3.5,-,N/A,,Unknown,330,2013-01-16 16:00:00
10:00 AM,-42.0,-50.6,61,29.50,-9999.0,NNW,4.6,-,N/A,,Unknown,330,2013-01-16 17:00:00
11:00 AM,-40,-48,44,29.49,,North,2.3,,,,,10,2013-01-16 18:00:00
11:00 AM,-39.6,-48.1,62,29.49,-9999.0,North,2.3,-,N/A,,Unknown,10,2013-01-16 18:00:00
12:00 PM,-39.1,-48.3,60,29.48,-9999.0,North,2.3,-,N/A,,Unknown,360,2013-01-16 19:00:00
1:00 PM,-37.1,-46.3,60,29.49,-9999.0,WNW,1.2,-,N/A,,Unknown,290,2013-01-16 20:00:00
2:00 PM,-43.4,-52.4,60,29.49,-9999.0,NNW,2.3,-,N/A,,Unknown,330,2013-01-16 21:00:00
3:00 PM,-41.3,-50.1,61,29.49,-9999.0,North,4.6,-,N/A,,Unknown,350,2013-01-16 22:00:00
4:00 PM,-39.3,-47.6,63,29.48,-9999.0,NNE,2.3,-,N/A,,Unknown,20,2013-01-16 23:00:00
5:00 PM,-40,-49,41,29.48,,NNW,1.2,,,,,330,2013-01-17 00:00:00
5:00 PM,-40.4,-48.8,62,29.48,-9999.0,NNW,1.2,-,N/A,,Unknown,330,2013-01-17 00:00:00
6:00 PM,-39.1,-47.7,62,29.47,-9999.0,NNE,1.2,-,N/A,,Unknown,20,2013-01-17 01:00:00
7:00 PM,-38.9,-47.2,63,29.45,-9999.0,NW,1.2,-,N/A,,Unknown,320,2013-01-17 02:00:00
8:00 PM,-39.8,-48.3,62,29.45,-9999.0,NW,1.2,-,N/A,,Unknown,320,2013-01-17 03:00:00
9:00 PM,-39.8,-48.3,62,29.45,-9999.0,NNE,1.2,-,N/A,,Unknown,20,2013-01-17 04:00:00
10:00 PM,-34.1,-41.8,66,29.44,-9999.0,NNE,3.5,-,N/A,,Unknown,30,2013-01-17 05:00:00
11:00 PM,-35,-43,48,29.44,,NE,3.5,,,,,50,2013-01-17 06:00:00
11:00 PM,-34.6,-42.5,65,29.44,-9999.0,NE,3.5,-,N/A,,Unknown,50,2013-01-17 06:00:00